Time,TemperatureF,DewpointF,PressureIn,WindDirection,WindDirectionDegrees,WindSpeedMPH,WindSpeedGustMPH,Humidity,HourlyPrecipIn,Conditions,Clouds,dailyrainin,SoftwareType,DateUTC
2013-06-02 00:00:00,54.1,43.0,30.21,NW,315,10.0,-999.0,66,0.00,,,0.00,Wunderground v.1.15,2013-06-02 05:00:00,
2013-06-02 00:05:00,54.1,43.0,30.21,NW,315,10.0,-999.0,66,0.00,,,0.00,Wunderground v.1.15,2013-06-02 05:05:00,
2013-06-02 00:10:00,54.1,43.0,30.21,NW,315,10.0,-999.0,66,0.00,,,0.00,Wunderground v.1.15,2013-06-02 05:10:00,
2013-06-02 00:15:00,54.1,43.0,30.21,NW,315,10.0,-999.0,66,0.00,,,0.00,Wunderground v.1.15,2013-06-02 05:15:00,
2013-06-02 00:20:00,54.1,43.0,30.21,NW,315,10.0,-999.0,66,0.00,,,0.00,Wunderground v.1.15,2013-06-02 05:20:00,
2013-06-02 00:25:00,54.1,43.0,30.21,NW,315,10.0,-999.0,66,0.00,,,0.00,Wunderground v.1.15,2013-06-02 05:25:00,
2013-06-02 00:30:00,54.1,43.0,30.21,NW,315,10.0,-999.0,66,0.00,,,0.00,Wunderground v.1.15,2013-06-02 05:30:00,
2013-06-02 00:35:00,54.1,43.0,30.21,NW,315,10.0,-999.0,66,0.00,,,0.00,Wunderground v.1.15,2013-06-02 05:35:00,
2013-06-02 00:40:00,54.1,43.0,30.21,NW,315,10.0,-999.0,66,0.00,,,0.00,Wunderground v.1.15,2013-06-02 05:40:00,
2013-06-02 00:45:00,53.4,43.1,30.22,NNW,338,10.0,-999.0,68,0.00,,,0.00,Wunderground v.1.15,2013-06-02 05:45:00,
2013-06-02 00:50:00,53.4,43.1,30.22,NNW,338,10.0,-999.0,68,0.00,,,0.00,Wunderground v.1.15,2013-06-02 05:50:00,
2013-06-02 00:55:00,53.4,43.1,30.22,NNW,338,10.0,-999.0,68,0.00,,,0.00,Wunderground v.1.15,2013-06-02 05:55:00,
2013-06-02 01:00:00,53.4,43.1,30.22,NNW,338,10.0,-999.0,68,0.00,,,0.00,Wunderground v.1.15,2013-06-02 06:00:00,
2013-06-02 01:05:00,53.4,43.1,30.22,NNW,338,10.0,-999.0,68,0.00,,,0.00,Wunderground v.1.15,2013-06-02 06:05:00,
2013-06-02 01:10:00,53.4,43.1,30.22,NNW,338,10.0,-999.0,68,0.00,,,0.00,Wunderground v.1.15,2013-06-02 06:10:00,
2013-06-02 01:15:00,52.5,43.0,30.22,NNW,338,8.0,-999.0,70,0.00,,,0.00,Wunderground v.1.15,2013-06-02 06:15:00,
2013-06-02 01:20:00,52.5,43.0,30.22,NNW,338,8.0,-999.0,70,0.00,,,0.00,Wunderground v.1.15,2013-06-02 06:20:00,
2013-06-02 01:25:00,52.5,43.0,30.22,NNW,338,8.0,-999.0,70,0.00,,,0.00,Wunderground v.1.15,2013-06-02 06:25:00,
2013-06-02 01:30:00,52.5,43.0,30.22,NNW,338,8.0,-999.0,70,0.00,,,0.00,Wunderground v.1.15,2013-06-02 06:30:00,
2013-06-02 01:35:00,52.5,43.0,30.22,NNW,338,8.0,-999.0,70,0.00,,,0.00,Wunderground v.1.15,2013-06-02 06:35:00,
2013-06-02 01:40:00,52.5,43.0,30.22,NNW,338,8.0,-999.0,70,0.00,,,0.00,Wunderground v.1.15,2013-06-02 06:40:00,
2013-06-02 01:45:00,50.1,42.1,30.22,NNW,338,7.0,-999.0,74,0.00,,,0.00,Wunderground v.1.15,2013-06-02 06:45:00,
2013-06-02 01:50:00,50.1,42.1,30.22,NNW,338,7.0,-999.0,74,0.00,,,0.00,Wunderground v.1.15,2013-06-02 06:50:00,
2013-06-02 01:55:00,50.1,42.1,30.22,NNW,338,7.0,-999.0,74,0.00,,,0.00,Wunderground v.1.15,2013-06-02 06:55:00,
2013-06-02 02:00:00,50.1,42.1,30.22,NNW,338,7.0,-999.0,74,0.00,,,0.00,Wunderground v.1.15,2013-06-02 07:00:00,
2013-06-02 02:05:00,50.1,42.1,30.22,NNW,338,7.0,-999.0,74,0.00,,,0.00,Wunderground v.1.15,2013-06-02 07:05:00,
2013-06-02 02:10:00,50.1,42.1,30.22,NNW,338,7.0,-999.0,74,0.00,,,0.00,Wunderground v.1.15,2013-06-02 07:10:00,
2013-06-02 02:15:00,48.1,40.9,30.23,NNW,338,5.0,-999.0,76,0.00,,,0.00,Wunderground v.1.15,2013-06-02 07:15:00,
2013-06-02 02:20:00,48.1,40.9,30.23,NNW,338,5.0,-999.0,76,0.00,,,0.00,Wunderground v.1.15,2013-06-02 07:20:00,
2013-06-02 02:25:00,48.1,40.9,30.23,NNW,338,5.0,-999.0,76,0.00,,,0.00,Wunderground v.1.15,2013-06-02 07:25:00,
2013-06-02 02:30:00,48.1,40.9,30.23,NNW,338,5.0,-999.0,76,0.00,,,0.00,Wunderground v.1.15,2013-06-02 07:30:00,
2013-06-02 02:35:00,48.1,40.9,30.23,NNW,338,5.0,-999.0,76,0.00,,,0.00,Wunderground v.1.15,2013-06-02 07:35:00,
2013-06-02 02:40:00,48.1,40.9,30.23,NNW,338,5.0,-999.0,76,0.00,,,0.00,Wunderground v.1.15,2013-06-02 07:40:00,
2013-06-02 02:45:00,46.9,40.4,30.23,NNW,338,6.0,-999.0,78,0.00,,,0.00,Wunderground v.1.15,2013-06-02 07:45:00,
2013-06-02 02:50:00,46.9,40.4,30.23,NNW,338,6.0,-999.0,78,0.00,,,0.00,Wunderground v.1.15,2013-06-02 07:50:00,
2013-06-02 02:55:00,46.9,40.4,30.23,NNW,338,6.0,-999.0,78,0.00,,,0.00,Wunderground v.1.15,2013-06-02 07:55:00,
2013-06-02 03:00:00,46.9,40.4,30.23,NNW,338,6.0,-999.0,78,0.00,,,0.00,Wunderground v.1.15,2013-06-02 08:00:00,
2013-06-02 03:05:00,46.9,40.4,30.23,NNW,338,6.0,-999.0,78,0.00,,,0.00,Wunderground v.1.15,2013-06-02 08:05:00,
2013-06-02 03:10:00,46.9,40.4,30.23,NNW,338,6.0,-999.0,78,0.00,,,0.00,Wunderground v.1.15,2013-06-02 08:10:00,
2013-06-02 03:15:00,46.2,40.4,30.23,NW,315,7.0,-999.0,80,0.00,,,0.00,Wunderground v.1.15,2013-06-02 08:15:00,
2013-06-02 03:20:00,46.2,40.4,30.23,NW,315,7.0,-999.0,80,0.00,,,0.00,Wunderground v.1.15,2013-06-02 08:20:00,
2013-06-02 03:25:00,46.2,40.4,30.23,NW,315,7.0,-999.0,80,0.00,,,0.00,Wunderground v.1.15,2013-06-02 08:25:00,
2013-06-02 03:30:00,46.2,40.4,30.23,NW,315,7.0,-999.0,80,0.00,,,0.00,Wunderground v.1.15,2013-06-02 08:30:00,
2013-06-02 03:35:00,46.2,40.4,30.23,NW,315,7.0,-999.0,80,0.00,,,0.00,Wunderground v.1.15,2013-06-02 08:35:00,
2013-06-02 03:40:00,46.2,40.4,30.23,NW,315,7.0,-999.0,80,0.00,,,0.00,Wunderground v.1.15,2013-06-02 08:40:00,
2013-06-02 03:45:00,45.7,39.6,30.23,NW,315,7.0,-999.0,79,0.00,,,0.00,Wunderground v.1.15,2013-06-02 08:45:00,
2013-06-02 03:50:00,45.7,39.6,30.23,NW,315,7.0,-999.0,79,0.00,,,0.00,Wunderground v.1.15,2013-06-02 08:50:00,
2013-06-02 03:55:00,45.7,39.6,30.23,NW,315,7.0,-999.0,79,0.00,,,0.00,Wunderground v.1.15,2013-06-02 08:55:00,
2013-06-02 04:00:00,45.7,39.6,30.23,NW,315,7.0,-999.0,79,0.00,,,0.00,Wunderground v.1.15,2013-06-02 09:00:00,
2013-06-02 04:05:00,45.7,39.6,30.23,NW,315,7.0,-999.0,79,0.00,,,0.00,Wunderground v.1.15,2013-06-02 09:05:00,
2013-06-02 04:10:00,45.7,39.6,30.23,NW,315,7.0,-999.0,79,0.00,,,0.00,Wunderground v.1.15,2013-06-02 09:10:00,
2013-06-02 04:15:00,45.5,39.7,30.24,NW,315,7.0,-999.0,80,0.00,,,0.00,Wunderground v.1.15,2013-06-02 09:15:00,
2013-06-02 04:20:00,45.5,39.7,30.24,NW,315,7.0,-999.0,80,0.00,,,0.00,Wunderground v.1.15,2013-06-02 09:20:00,
2013-06-02 04:25:00,45.5,39.7,30.24,NW,315,7.0,-999.0,80,0.00,,,0.00,Wunderground v.1.15,2013-06-02 09:25:00,
2013-06-02 04:30:00,45.5,39.7,30.24,NW,315,7.0,-999.0,80,0.00,,,0.00,Wunderground v.1.15,2013-06-02 09:30:00,
2013-06-02 04:35:00,45.5,39.7,30.24,NW,315,7.0,-999.0,80,0.00,,,0.00,Wunderground v.1.15,2013-06-02 09:35:00,
2013-06-02 04:40:00,45.5,39.7,30.24,NW,315,7.0,-999.0,80,0.00,,,0.00,Wunderground v.1.15,2013-06-02 09:40:00,
2013-06-02 04:45:00,45.6,39.8,30.23,WNW,293,8.0,-999.0,80,0.00,,,0.00,Wunderground v.1.15,2013-06-02 09:45:00,
2013-06-02 04:50:00,45.6,39.8,30.23,WNW,293,8.0,-999.0,80,0.00,,,0.00,Wunderground v.1.15,2013-06-02 09:50:00,
2013-06-02 04:55:00,45.6,39.8,30.23,WNW,293,8.0,-999.0,80,0.00,,,0.00,Wunderground v.1.15,2013-06-02 09:55:00,
2013-06-02 05:00:00,45.6,39.8,30.23,WNW,293,8.0,-999.0,80,0.00,,,0.00,Wunderground v.1.15,2013-06-02 10:00:00,
2013-06-02 05:05:00,45.6,39.8,30.23,WNW,293,8.0,-999.0,80,0.00,,,0.00,Wunderground v.1.15,2013-06-02 10:05:00,
2013-06-02 05:10:00,45.6,39.8,30.23,WNW,293,8.0,-999.0,80,0.00,,,0.00,Wunderground v.1.15,2013-06-02 10:10:00,
2013-06-02 05:15:00,44.9,39.1,30.24,WNW,293,8.0,-999.0,80,0.00,,,0.00,Wunderground v.1.15,2013-06-02 10:15:00,
2013-06-02 05:20:00,44.9,39.1,30.24,WNW,293,8.0,-999.0,80,0.00,,,0.00,Wunderground v.1.15,2013-06-02 10:20:00,
2013-06-02 05:25:00,44.9,39.1,30.24,WNW,293,8.0,-999.0,80,0.00,,,0.00,Wunderground v.1.15,2013-06-02 10:25:00,
2013-06-02 05:30:00,44.9,39.1,30.24,WNW,293,8.0,-999.0,80,0.00,,,0.00,Wunderground v.1.15,2013-06-02 10:30:00,
2013-06-02 05:35:00,44.9,39.1,30.24,WNW,293,8.0,-999.0,80,0.00,,,0.00,Wunderground v.1.15,2013-06-02 10:35:00,
2013-06-02 05:40:00,44.9,39.1,30.24,WNW,293,8.0,-999.0,80,0.00,,,0.00,Wunderground v.1.15,2013-06-02 10:40:00,
2013-06-02 05:45:00,47.3,40.8,30.24,WNW,293,8.0,-999.0,78,0.00,,,0.00,Wunderground v.1.15,2013-06-02 10:45:00,
2013-06-02 05:50:00,47.3,40.8,30.24,WNW,293,8.0,-999.0,78,0.00,,,0.00,Wunderground v.1.15,2013-06-02 10:50:00,
2013-06-02 05:55:00,47.3,40.8,30.24,WNW,293,8.0,-999.0,78,0.00,,,0.00,Wunderground v.1.15,2013-06-02 10:55:00,
2013-06-02 06:00:00,47.3,40.8,30.24,WNW,293,8.0,-999.0,78,0.00,,,0.00,Wunderground v.1.15,2013-06-02 11:00:00,
2013-06-02 06:05:00,47.3,40.8,30.24,WNW,293,8.0,-999.0,78,0.00,,,0.00,Wunderground v.1.15,2013-06-02 11:05:00,
2013-06-02 06:10:00,47.3,40.8,30.24,WNW,293,8.0,-999.0,78,0.00,,,0.00,Wunderground v.1.15,2013-06-02 11:10:00,
2013-06-02 06:15:00,42.6,37.5,30.25,WNW,293,7.0,-999.0,82,0.00,,,0.00,Wunderground v.1.15,2013-06-02 11:15:00,
2013-06-02 06:20:00,42.6,37.5,30.25,WNW,293,7.0,-999.0,82,0.00,,,0.00,Wunderground v.1.15,2013-06-02 11:20:00,
2013-06-02 06:25:00,42.6,37.5,30.25,WNW,293,7.0,-999.0,82,0.00,,,0.00,Wunderground v.1.15,2013-06-02 11:25:00,
2013-06-02 06:30:00,42.6,37.5,30.25,WNW,293,7.0,-999.0,82,0.00,,,0.00,Wunderground v.1.15,2013-06-02 11:30:00,
2013-06-02 06:35:00,42.6,37.5,30.25,WNW,293,7.0,-999.0,82,0.00,,,0.00,Wunderground v.1.15,2013-06-02 11:35:00,
2013-06-02 06:40:00,42.6,37.5,30.25,WNW,293,7.0,-999.0,82,0.00,,,0.00,Wunderground v.1.15,2013-06-02 11:40:00,
2013-06-02 06:45:00,42.8,37.7,30.25,WNW,293,7.0,-999.0,82,0.00,,,0.00,Wunderground v.1.15,2013-06-02 11:45:00,
2013-06-02 06:50:00,42.8,37.7,30.25,WNW,293,7.0,-999.0,82,0.00,,,0.00,Wunderground v.1.15,2013-06-02 11:50:00,
2013-06-02 06:55:00,42.8,37.7,30.25,WNW,293,7.0,-999.0,82,0.00,,,0.00,Wunderground v.1.15,2013-06-02 11:55:00,
2013-06-02 07:00:00,42.8,37.7,30.25,WNW,293,7.0,-999.0,82,0.00,,,0.00,Wunderground v.1.15,2013-06-02 12:00:00,
2013-06-02 07:05:00,42.8,37.7,30.25,WNW,293,7.0,-999.0,82,0.00,,,0.00,Wunderground v.1.15,2013-06-02 12:05:00,
2013-06-02 07:10:00,42.8,37.7,30.25,WNW,293,7.0,-999.0,82,0.00,,,0.00,Wunderground v.1.15,2013-06-02 12:10:00,
2013-06-02 07:15:00,44.1,39.0,30.25,WNW,293,6.0,-999.0,82,0.00,,,0.00,Wunderground v.1.15,2013-06-02 12:15:00,
2013-06-02 07:20:00,44.1,39.0,30.25,WNW,293,6.0,-999.0,82,0.00,,,0.00,Wunderground v.1.15,2013-06-02 12:20:00,
2013-06-02 07:25:00,44.1,39.0,30.25,WNW,293,6.0,-999.0,82,0.00,,,0.00,Wunderground v.1.15,2013-06-02 12:25:00,
2013-06-02 07:30:00,44.1,39.0,30.25,WNW,293,6.0,-999.0,82,0.00,,,0.00,Wunderground v.1.15,2013-06-02 12:30:00,
2013-06-02 07:35:00,44.1,39.0,30.25,WNW,293,6.0,-999.0,82,0.00,,,0.00,Wunderground v.1.15,2013-06-02 12:35:00,
2013-06-02 07:40:00,44.1,39.0,30.25,WNW,293,6.0,-999.0,82,0.00,,,0.00,Wunderground v.1.15,2013-06-02 12:40:00,
2013-06-02 07:45:00,45.3,40.1,30.24,WNW,293,3.0,-999.0,82,0.00,,,0.00,Wunderground v.1.15,2013-06-02 12:45:00,
2013-06-02 07:50:00,45.3,40.1,30.24,WNW,293,3.0,-999.0,82,0.00,,,0.00,Wunderground v.1.15,2013-06-02 12:50:00,
2013-06-02 07:55:00,45.3,40.1,30.24,WNW,293,3.0,-999.0,82,0.00,,,0.00,Wunderground v.1.15,2013-06-02 12:55:00,
2013-06-02 08:00:00,45.3,40.1,30.24,WNW,293,3.0,-999.0,82,0.00,,,0.00,Wunderground v.1.15,2013-06-02 13:00:00,
2013-06-02 08:05:00,45.3,40.1,30.24,WNW,293,3.0,-999.0,82,0.00,,,0.00,Wunderground v.1.15,2013-06-02 13:05:00,
2013-06-02 08:10:00,45.3,40.1,30.24,WNW,293,3.0,-999.0,82,0.00,,,0.00,Wunderground v.1.15,2013-06-02 13:10:00,
2013-06-02 08:15:00,47.4,42.2,30.24,WNW,293,4.0,-999.0,82,0.00,,,0.00,Wunderground v.1.15,2013-06-02 13:15:00,
2013-06-02 08:20:00,47.4,42.2,30.24,WNW,293,4.0,-999.0,82,0.00,,,0.00,Wunderground v.1.15,2013-06-02 13:20:00,
2013-06-02 08:25:00,47.4,42.2,30.24,WNW,293,4.0,-999.0,82,0.00,,,0.00,Wunderground v.1.15,2013-06-02 13:25:00,
2013-06-02 08:30:00,47.4,42.2,30.24,WNW,293,4.0,-999.0,82,0.00,,,0.00,Wunderground v.1.15,2013-06-02 13:30:00,
2013-06-02 08:35:00,47.4,42.2,30.24,WNW,293,4.0,-999.0,82,0.00,,,0.00,Wunderground v.1.15,2013-06-02 13:35:00,
2013-06-02 08:40:00,47.4,42.2,30.24,WNW,293,4.0,-999.0,82,0.00,,,0.00,Wunderground v.1.15,2013-06-02 13:40:00,
2013-06-02 08:45:00,50.6,43.7,30.25,WNW,293,3.0,-999.0,77,0.00,,,0.00,Wunderground v.1.15,2013-06-02 13:45:00,
2013-06-02 08:50:00,50.6,43.7,30.25,WNW,293,3.0,-999.0,77,0.00,,,0.00,Wunderground v.1.15,2013-06-02 13:50:00,
2013-06-02 08:55:00,50.6,43.7,30.25,WNW,293,3.0,-999.0,77,0.00,,,0.00,Wunderground v.1.15,2013-06-02 13:55:00,
2013-06-02 09:00:00,50.6,43.7,30.25,WNW,293,3.0,-999.0,77,0.00,,,0.00,Wunderground v.1.15,2013-06-02 14:00:00,
2013-06-02 09:05:00,50.6,43.7,30.25,WNW,293,3.0,-999.0,77,0.00,,,0.00,Wunderground v.1.15,2013-06-02 14:05:00,
2013-06-02 09:10:00,50.6,43.7,30.25,WNW,293,3.0,-999.0,77,0.00,,,0.00,Wunderground v.1.15,2013-06-02 14:10:00,
2013-06-02 09:15:00,53.6,44.0,30.25,WNW,293,2.0,-999.0,70,0.00,,,0.00,Wunderground v.1.15,2013-06-02 14:15:00,
2013-06-02 09:20:00,53.6,44.0,30.25,WNW,293,2.0,-999.0,70,0.00,,,0.00,Wunderground v.1.15,2013-06-02 14:20:00,
2013-06-02 09:25:00,53.6,44.0,30.25,WNW,293,2.0,-999.0,70,0.00,,,0.00,Wunderground v.1.15,2013-06-02 14:25:00,
2013-06-02 09:30:00,53.6,44.0,30.25,WNW,293,2.0,-999.0,70,0.00,,,0.00,Wunderground v.1.15,2013-06-02 14:30:00,
2013-06-02 09:35:00,53.6,44.0,30.25,WNW,293,2.0,-999.0,70,0.00,,,0.00,Wunderground v.1.15,2013-06-02 14:35:00,
2013-06-02 09:40:00,53.6,44.0,30.25,WNW,293,2.0,-999.0,70,0.00,,,0.00,Wunderground v.1.15,2013-06-02 14:40:00,
2013-06-02 09:45:00,55.9,43.1,30.24,WNW,293,2.0,-999.0,62,0.00,,,0.00,Wunderground v.1.15,2013-06-02 14:45:00,
2013-06-02 09:50:00,55.9,43.1,30.24,WNW,293,2.0,-999.0,62,0.00,,,0.00,Wunderground v.1.15,2013-06-02 14:50:00,
2013-06-02 09:55:00,55.9,43.1,30.24,WNW,293,2.0,-999.0,62,0.00,,,0.00,Wunderground v.1.15,2013-06-02 14:55:00,
2013-06-02 10:00:00,55.9,43.1,30.24,WNW,293,2.0,-999.0,62,0.00,,,0.00,Wunderground v.1.15,2013-06-02 15:00:00,
2013-06-02 10:05:00,55.9,43.1,30.24,WNW,293,2.0,-999.0,62,0.00,,,0.00,Wunderground v.1.15,2013-06-02 15:05:00,
2013-06-02 10:10:00,55.9,43.1,30.24,WNW,293,2.0,-999.0,62,0.00,,,0.00,Wunderground v.1.15,2013-06-02 15:10:00,
2013-06-02 10:15:00,59.0,42.4,30.24,WNW,293,1.0,-999.0,54,0.00,,,0.00,Wunderground v.1.15,2013-06-02 15:15:00,
2013-06-02 10:20:00,59.0,42.4,30.24,WNW,293,1.0,-999.0,54,0.00,,,0.00,Wunderground v.1.15,2013-06-02 15:20:00,
2013-06-02 10:25:00,59.0,42.4,30.24,WNW,293,1.0,-999.0,54,0.00,,,0.00,Wunderground v.1.15,2013-06-02 15:25:00,
2013-06-02 10:30:00,59.0,42.4,30.24,WNW,293,1.0,-999.0,54,0.00,,,0.00,Wunderground v.1.15,2013-06-02 15:30:00,
2013-06-02 10:35:00,59.0,42.4,30.24,WNW,293,1.0,-999.0,54,0.00,,,0.00,Wunderground v.1.15,2013-06-02 15:35:00,
2013-06-02 10:40:00,59.0,42.4,30.24,WNW,293,1.0,-999.0,54,0.00,,,0.00,Wunderground v.1.15,2013-06-02 15:40:00,
2013-06-02 10:45:00,58.2,41.6,30.23,West,270,3.0,-999.0,54,0.00,,,0.00,Wunderground v.1.15,2013-06-02 15:45:00,
2013-06-02 10:50:00,58.2,41.6,30.23,West,270,3.0,-999.0,54,0.00,,,0.00,Wunderground v.1.15,2013-06-02 15:50:00,
2013-06-02 10:55:00,58.2,41.6,30.23,West,270,3.0,-999.0,54,0.00,,,0.00,Wunderground v.1.15,2013-06-02 15:55:00,
2013-06-02 11:00:00,58.2,41.6,30.23,West,270,3.0,-999.0,54,0.00,,,0.00,Wunderground v.1.15,2013-06-02 16:00:00,
2013-06-02 11:05:00,58.2,41.6,30.23,West,270,3.0,-999.0,54,0.00,,,0.00,Wunderground v.1.15,2013-06-02 16:05:00,
2013-06-02 11:10:00,58.2,41.6,30.23,West,270,3.0,-999.0,54,0.00,,,0.00,Wunderground v.1.15,2013-06-02 16:10:00,
2013-06-02 11:15:00,59.4,42.7,30.21,West,270,2.0,-999.0,54,0.00,,,0.00,Wunderground v.1.15,2013-06-02 16:15:00,
2013-06-02 11:20:00,59.4,42.7,30.21,West,270,2.0,-999.0,54,0.00,,,0.00,Wunderground v.1.15,2013-06-02 16:20:00,
2013-06-02 11:25:00,59.4,42.7,30.21,West,270,2.0,-999.0,54,0.00,,,0.00,Wunderground v.1.15,2013-06-02 16:25:00,
2013-06-02 11:30:00,59.4,42.7,30.21,West,270,2.0,-999.0,54,0.00,,,0.00,Wunderground v.1.15,2013-06-02 16:30:00,
2013-06-02 11:35:00,59.4,42.7,30.21,West,270,2.0,-999.0,54,0.00,,,0.00,Wunderground v.1.15,2013-06-02 16:35:00,
2013-06-02 11:40:00,59.4,42.7,30.21,West,270,2.0,-999.0,54,0.00,,,0.00,Wunderground v.1.15,2013-06-02 16:40:00,
2013-06-02 11:45:00,60.8,43.6,30.20,West,270,3.0,-999.0,53,0.00,,,0.00,Wunderground v.1.15,2013-06-02 16:45:00,
2013-06-02 11:50:00,60.8,43.6,30.20,West,270,3.0,-999.0,53,0.00,,,0.00,Wunderground v.1.15,2013-06-02 16:50:00,
2013-06-02 11:55:00,60.8,43.6,30.20,West,270,3.0,-999.0,53,0.00,,,0.00,Wunderground v.1.15,2013-06-02 16:55:00,
2013-06-02 12:00:00,60.8,43.6,30.20,West,270,3.0,-999.0,53,0.00,,,0.00,Wunderground v.1.15,2013-06-02 17:00:00,
2013-06-02 12:05:00,60.8,43.6,30.20,West,270,3.0,-999.0,53,0.00,,,0.00,Wunderground v.1.15,2013-06-02 17:05:00,
2013-06-02 12:10:00,60.8,43.6,30.20,West,270,3.0,-999.0,53,0.00,,,0.00,Wunderground v.1.15,2013-06-02 17:10:00,
2013-06-02 12:15:00,62.5,44.6,30.19,ESE,113,3.0,-999.0,52,0.00,,,0.00,Wunderground v.1.15,2013-06-02 17:15:00,
2013-06-02 12:20:00,62.5,44.6,30.19,ESE,113,3.0,-999.0,52,0.00,,,0.00,Wunderground v.1.15,2013-06-02 17:20:00,
2013-06-02 12:25:00,62.5,44.6,30.19,ESE,113,3.0,-999.0,52,0.00,,,0.00,Wunderground v.1.15,2013-06-02 17:25:00,
2013-06-02 12:30:00,62.5,44.6,30.19,ESE,113,3.0,-999.0,52,0.00,,,0.00,Wunderground v.1.15,2013-06-02 17:30:00,
2013-06-02 12:35:00,62.5,44.6,30.19,ESE,113,3.0,-999.0,52,0.00,,,0.00,Wunderground v.1.15,2013-06-02 17:35:00,
2013-06-02 12:40:00,62.5,44.6,30.19,ESE,113,3.0,-999.0,52,0.00,,,0.00,Wunderground v.1.15,2013-06-02 17:40:00,
2013-06-02 12:45:00,63.0,45.1,30.18,East,90,3.0,-999.0,52,0.00,,,0.00,Wunderground v.1.15,2013-06-02 17:45:00,
2013-06-02 12:50:00,63.0,45.1,30.18,East,90,3.0,-999.0,52,0.00,,,0.00,Wunderground v.1.15,2013-06-02 17:50:00,
2013-06-02 12:55:00,63.0,45.1,30.18,East,90,3.0,-999.0,52,0.00,,,0.00,Wunderground v.1.15,2013-06-02 17:55:00,
2013-06-02 13:00:00,63.0,45.1,30.18,East,90,3.0,-999.0,52,0.00,,,0.00,Wunderground v.1.15,2013-06-02 18:00:00,
2013-06-02 13:05:00,63.0,45.1,30.18,East,90,3.0,-999.0,52,0.00,,,0.00,Wunderground v.1.15,2013-06-02 18:05:00,
2013-06-02 13:10:00,63.0,45.1,30.18,East,90,3.0,-999.0,52,0.00,,,0.00,Wunderground v.1.15,2013-06-02 18:10:00,
2013-06-02 13:15:00,64.4,46.9,30.16,ESE,113,3.0,-999.0,53,0.00,,,0.00,Wunderground v.1.15,2013-06-02 18:15:00,
2013-06-02 13:20:00,64.4,46.9,30.16,ESE,113,3.0,-999.0,53,0.00,,,0.00,Wunderground v.1.15,2013-06-02 18:20:00,
2013-06-02 13:25:00,64.4,46.9,30.16,ESE,113,3.0,-999.0,53,0.00,,,0.00,Wunderground v.1.15,2013-06-02 18:25:00,
2013-06-02 13:30:00,64.4,46.9,30.16,ESE,113,3.0,-999.0,53,0.00,,,0.00,Wunderground v.1.15,2013-06-02 18:30:00,
2013-06-02 13:35:00,64.4,46.9,30.16,ESE,113,3.0,-999.0,53,0.00,,,0.00,Wunderground v.1.15,2013-06-02 18:35:00,
2013-06-02 13:40:00,64.4,46.9,30.16,ESE,113,3.0,-999.0,53,0.00,,,0.00,Wunderground v.1.15,2013-06-02 18:40:00,
2013-06-02 13:45:00,65.2,46.6,30.15,East,90,5.0,-999.0,51,0.00,,,0.00,Wunderground v.1.15,2013-06-02 18:45:00,
2013-06-02 13:50:00,65.2,46.6,30.15,East,90,5.0,-999.0,51,0.00,,,0.00,Wunderground v.1.15,2013-06-02 18:50:00,
2013-06-02 13:55:00,65.2,46.6,30.15,East,90,5.0,-999.0,51,0.00,,,0.00,Wunderground v.1.15,2013-06-02 18:55:00,
2013-06-02 14:00:00,65.2,46.6,30.15,East,90,5.0,-999.0,51,0.00,,,0.00,Wunderground v.1.15,2013-06-02 19:00:00,
2013-06-02 14:05:00,65.2,46.6,30.15,East,90,5.0,-999.0,51,0.00,,,0.00,Wunderground v.1.15,2013-06-02 19:05:00,
2013-06-02 14:10:00,65.2,46.6,30.15,East,90,5.0,-999.0,51,0.00,,,0.00,Wunderground v.1.15,2013-06-02 19:10:00,
2013-06-02 14:15:00,65.5,46.9,30.13,East,90,6.0,-999.0,51,0.00,,,0.00,Wunderground v.1.15,2013-06-02 19:15:00,
2013-06-02 14:20:00,65.5,46.9,30.13,East,90,6.0,-999.0,51,0.00,,,0.00,Wunderground v.1.15,2013-06-02 19:20:00,
2013-06-02 14:25:00,65.5,46.9,30.13,East,90,6.0,-999.0,51,0.00,,,0.00,Wunderground v.1.15,2013-06-02 19:25:00,
2013-06-02 14:30:00,65.5,46.9,30.13,East,90,6.0,-999.0,51,0.00,,,0.00,Wunderground v.1.15,2013-06-02 19:30:00,
2013-06-02 14:35:00,65.5,46.9,30.13,East,90,6.0,-999.0,51,0.00,,,0.00,Wunderground v.1.15,2013-06-02 19:35:00,
2013-06-02 14:40:00,65.5,46.9,30.13,East,90,6.0,-999.0,51,0.00,,,0.00,Wunderground v.1.15,2013-06-02 19:40:00,
2013-06-02 14:45:00,66.1,46.4,30.12,East,90,6.0,-999.0,49,0.00,,,0.00,Wunderground v.1.15,2013-06-02 19:45:00,
2013-06-02 14:50:00,66.1,46.4,30.12,East,90,6.0,-999.0,49,0.00,,,0.00,Wunderground v.1.15,2013-06-02 19:50:00,
2013-06-02 14:55:00,66.1,46.4,30.12,East,90,6.0,-999.0,49,0.00,,,0.00,Wunderground v.1.15,2013-06-02 19:55:00,
2013-06-02 15:00:00,66.1,46.4,30.12,East,90,6.0,-999.0,49,0.00,,,0.00,Wunderground v.1.15,2013-06-02 20:00:00,
2013-06-02 15:05:00,66.1,46.4,30.12,East,90,6.0,-999.0,49,0.00,,,0.00,Wunderground v.1.15,2013-06-02 20:05:00,
2013-06-02 15:10:00,66.1,46.4,30.12,East,90,6.0,-999.0,49,0.00,,,0.00,Wunderground v.1.15,2013-06-02 20:10:00,
2013-06-02 15:15:00,67.7,47.3,30.10,ENE,68,7.0,-999.0,48,0.00,,,0.00,Wunderground v.1.15,2013-06-02 20:15:00,
2013-06-02 15:20:00,67.7,47.3,30.10,ENE,68,7.0,-999.0,48,0.00,,,0.00,Wunderground v.1.15,2013-06-02 20:20:00,
2013-06-02 15:25:00,67.7,47.3,30.10,ENE,68,7.0,-999.0,48,0.00,,,0.00,Wunderground v.1.15,2013-06-02 20:25:00,
2013-06-02 15:30:00,67.7,47.3,30.10,ENE,68,7.0,-999.0,48,0.00,,,0.00,Wunderground v.1.15,2013-06-02 20:30:00,
2013-06-02 15:35:00,67.7,47.3,30.10,ENE,68,7.0,-999.0,48,0.00,,,0.00,Wunderground v.1.15,2013-06-02 20:35:00,
2013-06-02 15:40:00,67.7,47.3,30.10,ENE,68,7.0,-999.0,48,0.00,,,0.00,Wunderground v.1.15,2013-06-02 20:40:00,
2013-06-02 15:45:00,68.5,46.9,30.09,East,90,8.0,-999.0,46,0.00,,,0.00,Wunderground v.1.15,2013-06-02 20:45:00,
2013-06-02 15:50:00,68.5,46.9,30.09,East,90,8.0,-999.0,46,0.00,,,0.00,Wunderground v.1.15,2013-06-02 20:50:00,
2013-06-02 15:55:00,68.5,46.9,30.09,East,90,8.0,-999.0,46,0.00,,,0.00,Wunderground v.1.15,2013-06-02 20:55:00,
2013-06-02 16:00:00,68.5,46.9,30.09,East,90,8.0,-999.0,46,0.00,,,0.00,Wunderground v.1.15,2013-06-02 21:00:00,
2013-06-02 16:05:00,68.5,46.9,30.09,East,90,8.0,-999.0,46,0.00,,,0.00,Wunderground v.1.15,2013-06-02 21:05:00,
2013-06-02 16:10:00,68.5,46.9,30.09,East,90,8.0,-999.0,46,0.00,,,0.00,Wunderground v.1.15,2013-06-02 21:10:00,
2013-06-02 16:15:00,68.9,47.8,30.08,East,90,10.0,-999.0,47,0.00,,,0.00,Wunderground v.1.15,2013-06-02 21:15:00,
2013-06-02 16:20:00,68.9,47.8,30.08,East,90,10.0,-999.0,47,0.00,,,0.00,Wunderground v.1.15,2013-06-02 21:20:00,
2013-06-02 16:25:00,68.9,47.8,30.08,East,90,10.0,-999.0,47,0.00,,,0.00,Wunderground v.1.15,2013-06-02 21:25:00,
2013-06-02 16:30:00,68.9,47.8,30.08,East,90,10.0,-999.0,47,0.00,,,0.00,Wunderground v.1.15,2013-06-02 21:30:00,
2013-06-02 16:35:00,68.9,47.8,30.08,East,90,10.0,-999.0,47,0.00,,,0.00,Wunderground v.1.15,2013-06-02 21:35:00,
2013-06-02 16:40:00,68.9,47.8,30.08,East,90,10.0,-999.0,47,0.00,,,0.00,Wunderground v.1.15,2013-06-02 21:40:00,
2013-06-02 16:45:00,69.9,47.6,30.06,East,90,9.0,-999.0,45,0.00,,,0.00,Wunderground v.1.15,2013-06-02 21:45:00,
2013-06-02 16:50:00,69.9,47.6,30.06,East,90,9.0,-999.0,45,0.00,,,0.00,Wunderground v.1.15,2013-06-02 21:50:00,
2013-06-02 16:55:00,69.9,47.6,30.06,East,90,9.0,-999.0,45,0.00,,,0.00,Wunderground v.1.15,2013-06-02 21:55:00,
2013-06-02 17:00:00,69.9,47.6,30.06,East,90,9.0,-999.0,45,0.00,,,0.00,Wunderground v.1.15,2013-06-02 22:00:00,
2013-06-02 17:05:00,69.9,47.6,30.06,East,90,9.0,-999.0,45,0.00,,,0.00,Wunderground v.1.15,2013-06-02 22:05:00,
2013-06-02 17:10:00,69.9,47.6,30.06,East,90,9.0,-999.0,45,0.00,,,0.00,Wunderground v.1.15,2013-06-02 22:10:00,
2013-06-02 17:15:00,70.4,47.4,30.06,SE,135,8.0,-999.0,44,0.00,,,0.00,Wunderground v.1.15,2013-06-02 22:15:00,
2013-06-02 17:20:00,70.4,47.4,30.06,SE,135,8.0,-999.0,44,0.00,,,0.00,Wunderground v.1.15,2013-06-02 22:20:00,
2013-06-02 17:25:00,70.4,47.4,30.06,SE,135,8.0,-999.0,44,0.00,,,0.00,Wunderground v.1.15,2013-06-02 22:25:00,
2013-06-02 17:30:00,70.4,47.4,30.06,SE,135,8.0,-999.0,44,0.00,,,0.00,Wunderground v.1.15,2013-06-02 22:30:00,
2013-06-02 17:35:00,70.4,47.4,30.06,SE,135,8.0,-999.0,44,0.00,,,0.00,Wunderground v.1.15,2013-06-02 22:35:00,
2013-06-02 17:40:00,70.4,47.4,30.06,SE,135,8.0,-999.0,44,0.00,,,0.00,Wunderground v.1.15,2013-06-02 22:40:00,
2013-06-02 17:45:00,70.5,46.9,30.05,SE,135,10.0,-999.0,43,0.00,,,0.00,Wunderground v.1.15,2013-06-02 22:45:00,
2013-06-02 17:50:00,70.5,46.9,30.05,SE,135,10.0,-999.0,43,0.00,,,0.00,Wunderground v.1.15,2013-06-02 22:50:00,
2013-06-02 17:55:00,70.5,46.9,30.05,SE,135,10.0,-999.0,43,0.00,,,0.00,Wunderground v.1.15,2013-06-02 22:55:00,
2013-06-02 18:00:00,70.5,46.9,30.05,SE,135,10.0,-999.0,43,0.00,,,0.00,Wunderground v.1.15,2013-06-02 23:00:00,
2013-06-02 18:05:00,70.5,46.9,30.05,SE,135,10.0,-999.0,43,0.00,,,0.00,Wunderground v.1.15,2013-06-02 23:05:00,
2013-06-02 18:10:00,70.5,46.9,30.05,SE,135,10.0,-999.0,43,0.00,,,0.00,Wunderground v.1.15,2013-06-02 23:10:00,
2013-06-02 18:15:00,70.7,47.1,30.04,SE,135,9.0,-999.0,43,0.00,,,0.00,Wunderground v.1.15,2013-06-02 23:15:00,
2013-06-02 18:20:00,70.7,47.1,30.04,SE,135,9.0,-999.0,43,0.00,,,0.00,Wunderground v.1.15,2013-06-02 23:20:00,
2013-06-02 18:25:00,70.7,47.1,30.04,SE,135,9.0,-999.0,43,0.00,,,0.00,Wunderground v.1.15,2013-06-02 23:25:00,
2013-06-02 18:30:00,70.7,47.1,30.04,SE,135,9.0,-999.0,43,0.00,,,0.00,Wunderground v.1.15,2013-06-02 23:30:00,
2013-06-02 18:35:00,70.7,47.1,30.04,SE,135,9.0,-999.0,43,0.00,,,0.00,Wunderground v.1.15,2013-06-02 23:35:00,
2013-06-02 18:40:00,70.7,47.1,30.04,SE,135,9.0,-999.0,43,0.00,,,0.00,Wunderground v.1.15,2013-06-02 23:40:00,
2013-06-02 18:45:00,70.4,46.8,30.02,ESE,113,12.0,-999.0,43,0.00,,,0.00,Wunderground v.1.15,2013-06-02 23:45:00,
2013-06-02 18:50:00,70.4,46.8,30.02,ESE,113,12.0,-999.0,43,0.00,,,0.00,Wunderground v.1.15,2013-06-02 23:50:00,
2013-06-02 18:55:00,70.4,46.8,30.02,ESE,113,12.0,-999.0,43,0.00,,,0.00,Wunderground v.1.15,2013-06-02 23:55:00,
2013-06-02 19:00:00,70.4,46.8,30.02,ESE,113,12.0,-999.0,43,0.00,,,0.00,Wunderground v.1.15,2013-06-03 00:00:00,
2013-06-02 19:05:00,70.4,46.8,30.02,ESE,113,12.0,-999.0,43,0.00,,,0.00,Wunderground v.1.15,2013-06-03 00:05:00,
2013-06-02 19:10:00,70.4,46.8,30.02,ESE,113,12.0,-999.0,43,0.00,,,0.00,Wunderground v.1.15,2013-06-03 00:10:00,
2013-06-02 19:15:00,70.3,47.9,30.01,ESE,113,12.0,-999.0,45,0.00,,,0.00,Wunderground v.1.15,2013-06-03 00:15:00,
2013-06-02 19:20:00,70.3,47.9,30.01,ESE,113,12.0,-999.0,45,0.00,,,0.00,Wunderground v.1.15,2013-06-03 00:20:00,
2013-06-02 19:25:00,70.3,47.9,30.01,ESE,113,12.0,-999.0,45,0.00,,,0.00,Wunderground v.1.15,2013-06-03 00:25:00,
2013-06-02 19:30:00,70.3,47.9,30.01,ESE,113,12.0,-999.0,45,0.00,,,0.00,Wunderground v.1.15,2013-06-03 00:30:00,
2013-06-02 19:35:00,70.3,47.9,30.01,ESE,113,12.0,-999.0,45,0.00,,,0.00,Wunderground v.1.15,2013-06-03 00:35:00,
2013-06-02 19:40:00,70.3,47.9,30.01,ESE,113,12.0,-999.0,45,0.00,,,0.00,Wunderground v.1.15,2013-06-03 00:40:00,
2013-06-02 19:45:00,69.4,47.1,30.01,ESE,113,14.0,-999.0,45,0.00,,,0.00,Wunderground v.1.15,2013-06-03 00:45:00,
2013-06-02 19:50:00,69.4,47.1,30.01,ESE,113,14.0,-999.0,45,0.00,,,0.00,Wunderground v.1.15,2013-06-03 00:50:00,
2013-06-02 19:55:00,69.4,47.1,30.01,ESE,113,14.0,-999.0,45,0.00,,,0.00,Wunderground v.1.15,2013-06-03 00:55:00,
2013-06-02 20:00:00,69.4,47.1,30.01,ESE,113,14.0,-999.0,45,0.00,,,0.00,Wunderground v.1.15,2013-06-03 01:00:00,
2013-06-02 20:05:00,69.4,47.1,30.01,ESE,113,14.0,-999.0,45,0.00,,,0.00,Wunderground v.1.15,2013-06-03 01:05:00,
2013-06-02 20:10:00,69.4,47.1,30.01,ESE,113,14.0,-999.0,45,0.00,,,0.00,Wunderground v.1.15,2013-06-03 01:10:00,
2013-06-02 20:15:00,68.5,47.5,30.00,ESE,113,11.0,-999.0,47,0.00,,,0.00,Wunderground v.1.15,2013-06-03 01:15:00,
2013-06-02 20:20:00,68.5,47.5,30.00,ESE,113,11.0,-999.0,47,0.00,,,0.00,Wunderground v.1.15,2013-06-03 01:20:00,
2013-06-02 20:25:00,68.5,47.5,30.00,ESE,113,11.0,-999.0,47,0.00,,,0.00,Wunderground v.1.15,2013-06-03 01:25:00,
2013-06-02 20:30:00,68.5,47.5,30.00,ESE,113,11.0,-999.0,47,0.00,,,0.00,Wunderground v.1.15,2013-06-03 01:30:00,
2013-06-02 20:35:00,68.5,47.5,30.00,ESE,113,11.0,-999.0,47,0.00,,,0.00,Wunderground v.1.15,2013-06-03 01:35:00,
2013-06-02 20:40:00,68.5,47.5,30.00,ESE,113,11.0,-999.0,47,0.00,,,0.00,Wunderground v.1.15,2013-06-03 01:40:00,
2013-06-02 20:45:00,67.3,46.9,29.99,ESE,113,11.0,-999.0,48,0.00,,,0.00,Wunderground v.1.15,2013-06-03 01:45:00,
2013-06-02 20:50:00,67.3,46.9,29.99,ESE,113,11.0,-999.0,48,0.00,,,0.00,Wunderground v.1.15,2013-06-03 01:50:00,
2013-06-02 20:55:00,67.3,46.9,29.99,ESE,113,11.0,-999.0,48,0.00,,,0.00,Wunderground v.1.15,2013-06-03 01:55:00,
2013-06-02 21:00:00,67.3,46.9,29.99,ESE,113,11.0,-999.0,48,0.00,,,0.00,Wunderground v.1.15,2013-06-03 02:00:00,
2013-06-02 21:05:00,67.3,46.9,29.99,ESE,113,11.0,-999.0,48,0.00,,,0.00,Wunderground v.1.15,2013-06-03 02:05:00,
2013-06-02 21:10:00,67.3,46.9,29.99,ESE,113,11.0,-999.0,48,0.00,,,0.00,Wunderground v.1.15,2013-06-03 02:10:00,
2013-06-02 21:15:00,65.7,47.1,29.98,East,90,12.0,-999.0,51,0.00,,,0.00,Wunderground v.1.15,2013-06-03 02:15:00,
2013-06-02 21:20:00,65.7,47.1,29.98,East,90,12.0,-999.0,51,0.00,,,0.00,Wunderground v.1.15,2013-06-03 02:20:00,
2013-06-02 21:25:00,65.7,47.1,29.98,East,90,12.0,-999.0,51,0.00,,,0.00,Wunderground v.1.15,2013-06-03 02:25:00,
2013-06-02 21:30:00,65.7,47.1,29.98,East,90,12.0,-999.0,51,0.00,,,0.00,Wunderground v.1.15,2013-06-03 02:30:00,
2013-06-02 21:35:00,65.7,47.1,29.98,East,90,12.0,-999.0,51,0.00,,,0.00,Wunderground v.1.15,2013-06-03 02:35:00,
2013-06-02 21:40:00,65.7,47.1,29.98,East,90,12.0,-999.0,51,0.00,,,0.00,Wunderground v.1.15,2013-06-03 02:40:00,
2013-06-02 21:45:00,64.6,46.1,29.99,East,90,14.0,-999.0,51,0.00,,,0.00,Wunderground v.1.15,2013-06-03 02:45:00,
2013-06-02 21:50:00,64.6,46.1,29.99,East,90,14.0,-999.0,51,0.00,,,0.00,Wunderground v.1.15,2013-06-03 02:50:00,
2013-06-02 21:55:00,64.6,46.1,29.99,East,90,14.0,-999.0,51,0.00,,,0.00,Wunderground v.1.15,2013-06-03 02:55:00,
2013-06-02 22:00:00,64.6,46.1,29.99,East,90,14.0,-999.0,51,0.00,,,0.00,Wunderground v.1.15,2013-06-03 03:00:00,
2013-06-02 22:05:00,64.6,46.1,29.99,East,90,14.0,-999.0,51,0.00,,,0.00,Wunderground v.1.15,2013-06-03 03:05:00,
2013-06-02 22:10:00,64.6,46.1,29.99,East,90,14.0,-999.0,51,0.00,,,0.00,Wunderground v.1.15,2013-06-03 03:10:00,
2013-06-02 22:15:00,63.6,45.6,30.00,ESE,113,14.0,-999.0,52,0.00,,,0.00,Wunderground v.1.15,2013-06-03 03:15:00,
2013-06-02 22:20:00,63.6,45.6,30.00,ESE,113,14.0,-999.0,52,0.00,,,0.00,Wunderground v.1.15,2013-06-03 03:20:00,
2013-06-02 22:25:00,63.6,45.6,30.00,ESE,113,14.0,-999.0,52,0.00,,,0.00,Wunderground v.1.15,2013-06-03 03:25:00,
2013-06-02 22:30:00,63.6,45.6,30.00,ESE,113,14.0,-999.0,52,0.00,,,0.00,Wunderground v.1.15,2013-06-03 03:30:00,
2013-06-02 22:35:00,63.6,45.6,30.00,ESE,113,14.0,-999.0,52,0.00,,,0.00,Wunderground v.1.15,2013-06-03 03:35:00,
2013-06-02 22:40:00,63.6,45.6,30.00,ESE,113,14.0,-999.0,52,0.00,,,0.00,Wunderground v.1.15,2013-06-03 03:40:00,
2013-06-02 22:45:00,62.3,44.9,30.00,ESE,113,13.0,-999.0,53,0.00,,,0.00,Wunderground v.1.15,2013-06-03 03:45:00,
2013-06-02 22:50:00,62.3,44.9,30.00,ESE,113,13.0,-999.0,53,0.00,,,0.00,Wunderground v.1.15,2013-06-03 03:50:00,
2013-06-02 22:55:00,62.3,44.9,30.00,ESE,113,13.0,-999.0,53,0.00,,,0.00,Wunderground v.1.15,2013-06-03 03:55:00,
2013-06-02 23:00:00,62.3,44.9,30.00,ESE,113,13.0,-999.0,53,0.00,,,0.00,Wunderground v.1.15,2013-06-03 04:00:00,
2013-06-02 23:05:00,62.3,44.9,30.00,ESE,113,13.0,-999.0,53,0.00,,,0.00,Wunderground v.1.15,2013-06-03 04:05:00,
2013-06-02 23:10:00,62.3,44.9,30.00,ESE,113,13.0,-999.0,53,0.00,,,0.00,Wunderground v.1.15,2013-06-03 04:10:00,
2013-06-02 23:15:00,61.3,44.0,30.00,East,90,14.0,-999.0,53,0.00,,,0.00,Wunderground v.1.15,2013-06-03 04:15:00,
2013-06-02 23:20:00,61.3,44.0,30.00,East,90,14.0,-999.0,53,0.00,,,0.00,Wunderground v.1.15,2013-06-03 04:20:00,
2013-06-02 23:25:00,61.3,44.0,30.00,East,90,14.0,-999.0,53,0.00,,,0.00,Wunderground v.1.15,2013-06-03 04:25:00,
2013-06-02 23:30:00,61.3,44.0,30.00,East,90,14.0,-999.0,53,0.00,,,0.00,Wunderground v.1.15,2013-06-03 04:30:00,
2013-06-02 23:35:00,61.3,44.0,30.00,East,90,14.0,-999.0,53,0.00,,,0.00,Wunderground v.1.15,2013-06-03 04:35:00,
2013-06-02 23:40:00,61.3,44.0,30.00,East,90,14.0,-999.0,53,0.00,,,0.00,Wunderground v.1.15,2013-06-03 04:40:00,
2013-06-02 23:45:00,60.1,44.8,30.01,ESE,113,15.0,-999.0,57,0.00,,,0.00,Wunderground v.1.15,2013-06-03 04:45:00,
2013-06-02 23:50:00,60.1,44.8,30.01,ESE,113,15.0,-999.0,57,0.00,,,0.00,Wunderground v.1.15,2013-06-03 04:50:00,
2013-06-02 23:55:00,60.1,44.8,30.01,ESE,113,15.0,-999.0,57,0.00,,,0.00,Wunderground v.1.15,2013-06-03 04:55:00,